Time,TemperatureF,DewpointF,PressureIn,WindDirection,WindDirectionDegrees,WindSpeedMPH,WindSpeedGustMPH,Humidity,HourlyPrecipIn,Conditions,Clouds,dailyrainin,SoftwareType,DateUTC
2013-07-14 00:00:00,74.0,73.4,30.27,SSE,161,0.0,0.0,98,0.00,,,0.07,Wunderground v.1.15,2013-07-14 04:00:00,
2013-07-14 00:10:00,73.9,73.3,30.27,SSE,161,0.0,0.0,98,0.00,,,0.07,Wunderground v.1.15,2013-07-14 04:10:00,
2013-07-14 00:20:00,73.7,73.1,30.28,SSE,161,0.0,0.0,98,0.00,,,0.00,Wunderground v.1.15,2013-07-14 04:20:00,
2013-07-14 00:30:00,73.5,72.9,30.28,SSE,161,0.0,0.0,98,0.00,,,0.00,Wunderground v.1.15,2013-07-14 04:30:00,
2013-07-14 00:40:00,73.4,72.8,30.28,SSE,161,0.0,2.0,98,0.00,,,0.00,Wunderground v.1.15,2013-07-14 04:40:00,
2013-07-14 00:50:00,73.3,72.7,30.27,SSE,161,0.0,2.0,98,0.00,,,0.00,Wunderground v.1.15,2013-07-14 04:50:00,
2013-07-14 01:00:00,73.1,72.5,30.27,SSE,161,0.0,0.0,98,0.00,,,0.00,Wunderground v.1.15,2013-07-14 05:00:00,
2013-07-14 01:10:00,73.0,72.4,30.28,SSE,161,0.0,0.0,98,0.00,,,0.00,Wunderground v.1.15,2013-07-14 05:10:00,
2013-07-14 01:20:00,72.9,72.3,30.28,SSE,161,0.0,0.0,98,0.00,,,0.00,Wunderground v.1.15,2013-07-14 05:20:00,
2013-07-14 01:30:00,72.8,72.2,30.28,SSE,161,0.0,0.0,98,0.00,,,0.00,Wunderground v.1.15,2013-07-14 05:30:00,
2013-07-14 01:40:00,72.6,72.0,30.28,SSE,161,0.0,1.0,98,0.00,,,0.00,Wunderground v.1.15,2013-07-14 05:40:00,
2013-07-14 01:50:00,72.5,71.9,30.28,SSE,161,0.0,1.0,98,0.00,,,0.00,Wunderground v.1.15,2013-07-14 05:50:00,
2013-07-14 02:00:00,72.4,71.8,30.28,SSE,161,0.0,0.0,98,0.00,,,0.00,Wunderground v.1.15,2013-07-14 06:00:00,
2013-07-14 02:10:00,72.4,71.8,30.28,SSE,161,0.0,0.0,98,0.00,,,0.00,Wunderground v.1.15,2013-07-14 06:10:00,
2013-07-14 02:20:00,72.4,71.8,30.28,SSE,161,0.0,0.0,98,0.00,,,0.00,Wunderground v.1.15,2013-07-14 06:20:00,
2013-07-14 02:30:00,72.3,71.7,30.28,SSE,161,0.0,0.0,98,0.00,,,0.00,Wunderground v.1.15,2013-07-14 06:30:00,
2013-07-14 02:40:00,72.1,71.5,30.28,SSE,161,0.0,0.0,98,0.00,,,0.00,Wunderground v.1.15,2013-07-14 06:40:00,
2013-07-14 02:50:00,72.0,71.7,30.29,SSE,161,0.0,0.0,99,0.00,,,0.00,Wunderground v.1.15,2013-07-14 06:50:00,
2013-07-14 03:00:00,72.0,71.7,30.28,SSE,161,0.0,0.0,99,0.00,,,0.00,Wunderground v.1.15,2013-07-14 07:00:00,
2013-07-14 03:10:00,72.0,71.7,30.28,SSE,161,0.0,0.0,99,0.00,,,0.00,Wunderground v.1.15,2013-07-14 07:10:00,
2013-07-14 03:20:00,71.8,71.5,30.28,SSE,161,0.0,0.0,99,0.00,,,0.00,Wunderground v.1.15,2013-07-14 07:20:00,
2013-07-14 03:30:00,71.7,71.1,30.28,SSE,161,0.0,0.0,98,0.00,,,0.00,Wunderground v.1.15,2013-07-14 07:30:00,
2013-07-14 03:40:00,71.9,71.6,30.28,SSE,161,0.0,0.0,99,0.00,,,0.00,Wunderground v.1.15,2013-07-14 07:40:00,
2013-07-14 03:50:00,72.2,71.9,30.28,SSE,161,0.0,0.0,99,0.00,,,0.00,Wunderground v.1.15,2013-07-14 07:50:00,
2013-07-14 04:00:00,72.3,72.0,30.29,SSE,161,0.0,0.0,99,0.00,,,0.00,Wunderground v.1.15,2013-07-14 08:00:00,
2013-07-14 04:10:00,72.4,72.1,30.29,SSE,161,0.0,0.0,99,0.00,,,0.00,Wunderground v.1.15,2013-07-14 08:10:00,
2013-07-14 04:20:00,72.3,72.0,30.29,SSE,161,0.0,0.0,99,0.00,,,0.00,Wunderground v.1.15,2013-07-14 08:20:00,
2013-07-14 04:30:00,72.3,72.0,30.29,SSE,161,0.0,0.0,99,0.00,,,0.00,Wunderground v.1.15,2013-07-14 08:30:00,
2013-07-14 04:40:00,72.3,72.0,30.29,SSE,161,0.0,0.0,99,0.00,,,0.00,Wunderground v.1.15,2013-07-14 08:40:00,
2013-07-14 04:50:00,72.2,71.9,30.30,SSE,161,0.0,0.0,99,0.00,,,0.00,Wunderground v.1.15,2013-07-14 08:50:00,
2013-07-14 05:00:00,72.1,71.8,30.30,SSE,161,0.0,0.0,99,0.00,,,0.00,Wunderground v.1.15,2013-07-14 09:00:00,
2013-07-14 05:10:00,72.1,71.8,30.30,SSE,161,0.0,0.0,99,0.00,,,0.00,Wunderground v.1.15,2013-07-14 09:10:00,
2013-07-14 05:20:00,72.0,71.7,30.30,SSE,161,0.0,0.0,99,0.00,,,0.00,Wunderground v.1.15,2013-07-14 09:20:00,
2013-07-14 05:30:00,72.0,71.7,30.31,SSE,161,0.0,0.0,99,0.00,,,0.00,Wunderground v.1.15,2013-07-14 09:30:00,
2013-07-14 05:40:00,71.9,71.6,30.31,SSE,161,0.0,1.0,99,0.00,,,0.00,Wunderground v.1.15,2013-07-14 09:40:00,
2013-07-14 05:50:00,71.9,71.6,30.31,SSE,161,0.0,1.0,99,0.00,,,0.00,Wunderground v.1.15,2013-07-14 09:50:00,
2013-07-14 06:00:00,71.9,71.6,30.31,SSE,161,0.0,0.0,99,0.00,,,0.00,Wunderground v.1.15,2013-07-14 10:00:00,
2013-07-14 06:10:00,71.8,71.5,30.31,SSE,161,0.0,0.0,99,0.00,,,0.00,Wunderground v.1.15,2013-07-14 10:10:00,
2013-07-14 06:20:00,71.7,71.4,30.32,SSE,161,0.0,0.0,99,0.00,,,0.00,Wunderground v.1.15,2013-07-14 10:20:00,
2013-07-14 06:30:00,71.7,71.4,30.32,SSE,161,0.0,0.0,99,0.00,,,0.00,Wunderground v.1.15,2013-07-14 10:30:00,
2013-07-14 06:40:00,71.8,71.5,30.32,SSE,161,0.0,0.0,99,0.00,,,0.00,Wunderground v.1.15,2013-07-14 10:40:00,
2013-07-14 06:50:00,71.9,71.6,30.32,SSE,161,0.0,0.0,99,0.00,,,0.00,Wunderground v.1.15,2013-07-14 10:50:00,
2013-07-14 07:00:00,72.0,71.7,30.32,SSE,161,0.0,0.0,99,0.00,,,0.00,Wunderground v.1.15,2013-07-14 11:00:00,
2013-07-14 07:10:00,72.1,71.8,30.33,SSE,161,0.0,0.0,99,0.00,,,0.00,Wunderground v.1.15,2013-07-14 11:10:00,
2013-07-14 07:20:00,72.2,71.9,30.33,SSE,161,0.0,0.0,99,0.00,,,0.00,Wunderground v.1.15,2013-07-14 11:20:00,
2013-07-14 07:30:00,72.4,72.1,30.33,SSE,161,0.0,0.0,99,0.00,,,0.00,Wunderground v.1.15,2013-07-14 11:30:00,
2013-07-14 07:40:00,72.5,72.2,30.34,SSE,161,0.0,2.0,99,0.00,,,0.00,Wunderground v.1.15,2013-07-14 11:40:00,
2013-07-14 07:50:00,72.6,72.3,30.34,SSE,161,0.0,2.0,99,0.00,,,0.00,Wunderground v.1.15,2013-07-14 11:50:00,
2013-07-14 08:00:00,72.9,72.6,30.34,SSE,161,0.0,0.0,99,0.00,,,0.00,Wunderground v.1.15,2013-07-14 12:00:00,
2013-07-14 08:10:00,73.0,72.7,30.34,SSE,161,0.0,0.0,99,0.00,,,0.00,Wunderground v.1.15,2013-07-14 12:10:00,
2013-07-14 08:20:00,73.1,72.8,30.34,SSE,161,1.0,2.0,99,0.00,,,0.00,Wunderground v.1.15,2013-07-14 12:20:00,
2013-07-14 08:30:00,73.5,73.2,30.35,SE,137,2.0,2.0,99,0.00,,,0.00,Wunderground v.1.15,2013-07-14 12:30:00,
2013-07-14 08:40:00,74.1,73.8,30.35,SSE,150,1.0,1.0,99,0.00,,,0.00,Wunderground v.1.15,2013-07-14 12:40:00,
2013-07-14 08:50:00,74.4,73.5,30.35,SE,138,2.0,3.0,97,0.00,,,0.00,Wunderground v.1.15,2013-07-14 12:50:00,
2013-07-14 09:00:00,75.3,73.8,30.36,SSE,155,2.0,2.0,95,0.00,,,0.01,Wunderground v.1.15,2013-07-14 13:00:00,
2013-07-14 09:10:00,75.7,73.5,30.36,SSW,192,1.0,1.0,93,0.00,,,0.01,Wunderground v.1.15,2013-07-14 13:10:00,
2013-07-14 09:20:00,76.3,73.8,30.36,SSW,192,1.0,1.0,92,0.00,,,0.01,Wunderground v.1.15,2013-07-14 13:20:00,
2013-07-14 09:30:00,77.0,73.2,30.36,SE,130,1.0,1.0,88,0.00,,,0.01,Wunderground v.1.15,2013-07-14 13:30:00,
2013-07-14 09:40:00,77.8,73.3,30.36,SE,132,2.0,3.0,86,0.00,,,0.01,Wunderground v.1.15,2013-07-14 13:40:00,
2013-07-14 09:50:00,78.5,72.9,30.36,SW,218,2.0,3.0,83,0.00,,,0.01,Wunderground v.1.15,2013-07-14 13:50:00,
2013-07-14 10:00:00,79.3,73.3,30.36,South,178,2.0,2.0,82,0.00,,,0.01,Wunderground v.1.15,2013-07-14 14:00:00,
2013-07-14 10:10:00,79.3,73.7,30.36,SE,135,3.0,3.0,83,0.00,,,0.01,Wunderground v.1.15,2013-07-14 14:10:00,
2013-07-14 10:20:00,79.5,73.5,30.36,SSE,153,2.0,2.0,82,0.00,,,0.01,Wunderground v.1.15,2013-07-14 14:20:00,
2013-07-14 10:30:00,80.4,73.3,30.36,ESE,113,2.0,2.0,79,0.00,,,0.01,Wunderground v.1.15,2013-07-14 14:30:00,
2013-07-14 10:40:00,80.4,72.5,30.36,East,98,2.0,4.0,77,0.00,,,0.01,Wunderground v.1.15,2013-07-14 14:40:00,
2013-07-14 10:50:00,80.9,74.9,30.36,SSE,161,2.0,2.0,82,0.00,,,0.01,Wunderground v.1.15,2013-07-14 14:50:00,
2013-07-14 11:00:00,81.8,73.5,30.36,SSW,194,2.0,4.0,76,0.00,,,0.01,Wunderground v.1.15,2013-07-14 15:00:00,
2013-07-14 11:10:00,82.0,71.7,30.37,SE,140,3.0,3.0,71,0.00,,,0.01,Wunderground v.1.15,2013-07-14 15:10:00,
2013-07-14 11:20:00,81.9,71.6,30.36,SSE,151,3.0,3.0,71,0.00,,,0.01,Wunderground v.1.15,2013-07-14 15:20:00,
2013-07-14 11:30:00,82.6,73.9,30.36,SSW,207,3.0,3.0,75,0.00,,,0.01,Wunderground v.1.15,2013-07-14 15:30:00,
2013-07-14 11:40:00,82.9,72.9,30.36,SE,142,2.0,5.0,72,0.00,,,0.01,Wunderground v.1.15,2013-07-14 15:40:00,
2013-07-14 11:50:00,83.1,72.7,30.36,SE,131,2.0,5.0,71,0.00,,,0.01,Wunderground v.1.15,2013-07-14 15:50:00,
2013-07-14 12:00:00,83.3,72.1,30.35,South,182,2.0,3.0,69,0.00,,,0.01,Wunderground v.1.15,2013-07-14 16:00:00,
2013-07-14 12:10:00,83.4,73.4,30.35,East,101,2.0,2.0,72,0.00,,,0.01,Wunderground v.1.15,2013-07-14 16:10:00,
2013-07-14 12:20:00,83.0,71.8,30.35,SE,132,2.0,3.0,69,0.00,,,0.01,Wunderground v.1.15,2013-07-14 16:20:00,
2013-07-14 12:30:00,84.1,72.4,30.35,South,169,1.0,3.0,68,0.00,,,0.01,Wunderground v.1.15,2013-07-14 16:30:00,
2013-07-14 12:40:00,84.1,71.5,30.35,SE,136,3.0,3.0,66,0.00,,,0.01,Wunderground v.1.15,2013-07-14 16:40:00,
2013-07-14 12:50:00,83.8,72.5,30.34,NNW,330,1.0,8.0,69,0.00,,,0.01,Wunderground v.1.15,2013-07-14 16:50:00,
2013-07-14 13:00:00,83.2,73.2,30.34,WNW,294,1.0,2.0,72,0.00,,,0.01,Wunderground v.1.15,2013-07-14 17:00:00,
2013-07-14 13:10:00,84.1,72.4,30.34,NW,319,2.0,4.0,68,0.00,,,0.01,Wunderground v.1.15,2013-07-14 17:10:00,
2013-07-14 13:20:00,84.2,73.8,30.34,North,351,2.0,2.0,71,0.00,,,0.01,Wunderground v.1.15,2013-07-14 17:20:00,
2013-07-14 13:30:00,84.6,72.9,30.34,South,175,1.0,1.0,68,0.00,,,0.01,Wunderground v.1.15,2013-07-14 17:30:00,
2013-07-14 13:40:00,85.0,74.5,30.34,SSW,194,1.0,8.0,71,0.00,,,0.01,Wunderground v.1.15,2013-07-14 17:40:00,
2013-07-14 13:50:00,85.4,72.7,30.33,SSW,196,2.0,2.0,66,0.00,,,0.01,Wunderground v.1.15,2013-07-14 17:50:00,
2013-07-14 14:00:00,85.9,72.8,30.33,SE,136,2.0,3.0,65,0.00,,,0.01,Wunderground v.1.15,2013-07-14 18:00:00,
2013-07-14 14:10:00,86.0,72.9,30.33,West,279,2.0,2.0,65,0.00,,,0.01,Wunderground v.1.15,2013-07-14 18:10:00,
2013-07-14 14:20:00,86.3,73.1,30.32,SSE,152,2.0,2.0,65,0.00,,,0.01,Wunderground v.1.15,2013-07-14 18:20:00,
2013-07-14 14:30:00,86.6,72.5,30.32,South,184,2.0,2.0,63,0.00,,,0.01,Wunderground v.1.15,2013-07-14 18:30:00,
2013-07-14 14:40:00,86.3,72.2,30.32,ESE,103,3.0,3.0,63,0.00,,,0.01,Wunderground v.1.15,2013-07-14 18:40:00,
2013-07-14 14:50:00,86.9,73.7,30.32,SSE,150,1.0,4.0,65,0.00,,,0.01,Wunderground v.1.15,2013-07-14 18:50:00,
2013-07-14 15:00:00,87.0,72.9,30.32,SSW,197,2.0,2.0,63,0.00,,,0.01,Wunderground v.1.15,2013-07-14 19:00:00,
2013-07-14 15:10:00,87.2,74.9,30.31,South,184,2.0,3.0,67,0.00,,,0.01,Wunderground v.1.15,2013-07-14 19:10:00,
2013-07-14 15:20:00,87.1,74.4,30.31,WSW,243,2.0,3.0,66,0.00,,,0.01,Wunderground v.1.15,2013-07-14 19:20:00,
2013-07-14 15:30:00,87.0,70.9,30.31,South,175,2.0,2.0,59,0.00,,,0.01,Wunderground v.1.15,2013-07-14 19:30:00,
2013-07-14 15:40:00,86.9,72.3,30.31,SSE,163,2.0,7.0,62,0.00,,,0.01,Wunderground v.1.15,2013-07-14 19:40:00,
2013-07-14 15:50:00,87.4,72.8,30.31,SE,145,1.0,7.0,62,0.00,,,0.01,Wunderground v.1.15,2013-07-14 19:50:00,
2013-07-14 16:00:00,87.4,71.8,30.31,SE,126,3.0,3.0,60,0.00,,,0.01,Wunderground v.1.15,2013-07-14 20:00:00,
2013-07-14 16:10:00,87.3,71.7,30.30,SSW,206,2.0,2.0,60,0.00,,,0.01,Wunderground v.1.15,2013-07-14 20:10:00,
2013-07-14 16:20:00,87.8,73.6,30.30,South,186,1.0,1.0,63,0.00,,,0.01,Wunderground v.1.15,2013-07-14 20:20:00,
2013-07-14 16:30:00,88.0,71.4,30.30,SSE,156,1.0,2.0,58,0.00,,,0.01,Wunderground v.1.15,2013-07-14 20:30:00,
2013-07-14 16:40:00,87.7,71.6,30.30,SW,231,2.0,2.0,59,0.00,,,0.01,Wunderground v.1.15,2013-07-14 20:40:00,
2013-07-14 16:50:00,87.6,71.0,30.29,ESE,117,2.0,6.0,58,0.00,,,0.01,Wunderground v.1.15,2013-07-14 20:50:00,
2013-07-14 17:00:00,87.8,71.2,30.30,SSE,163,2.0,3.0,58,0.00,,,0.01,Wunderground v.1.15,2013-07-14 21:00:00,
2013-07-14 17:10:00,87.5,70.9,30.29,SE,144,3.0,3.0,58,0.00,,,0.01,Wunderground v.1.15,2013-07-14 21:10:00,
2013-07-14 17:20:00,87.2,70.1,30.29,SSW,205,2.0,2.0,57,0.00,,,0.01,Wunderground v.1.15,2013-07-14 21:20:00,
2013-07-14 17:30:00,87.0,71.4,30.29,SE,125,1.0,3.0,60,0.00,,,0.01,Wunderground v.1.15,2013-07-14 21:30:00,
2013-07-14 17:40:00,86.9,71.8,30.29,South,176,2.0,2.0,61,0.00,,,0.01,Wunderground v.1.15,2013-07-14 21:40:00,
2013-07-14 17:50:00,87.2,71.6,30.29,WSW,254,1.0,5.0,60,0.00,,,0.01,Wunderground v.1.15,2013-07-14 21:50:00,
2013-07-14 18:00:00,87.3,71.7,30.28,SE,130,1.0,1.0,60,0.00,,,0.01,Wunderground v.1.15,2013-07-14 22:00:00,
2013-07-14 18:10:00,87.0,71.4,30.28,SSE,162,1.0,2.0,60,0.00,,,0.01,Wunderground v.1.15,2013-07-14 22:10:00,
2013-07-14 18:20:00,87.2,72.1,30.28,SSE,157,1.0,1.0,61,0.00,,,0.01,Wunderground v.1.15,2013-07-14 22:20:00,
2013-07-14 18:30:00,86.8,72.2,30.28,SW,216,1.0,2.0,62,0.00,,,0.01,Wunderground v.1.15,2013-07-14 22:30:00,
2013-07-14 18:40:00,86.0,72.9,30.28,SSW,198,1.0,5.0,65,0.00,,,0.01,Wunderground v.1.15,2013-07-14 22:40:00,
2013-07-14 18:50:00,85.7,73.5,30.28,SE,142,1.0,5.0,67,0.00,,,0.01,Wunderground v.1.15,2013-07-14 22:50:00,
2013-07-14 19:00:00,85.1,72.5,30.28,SSE,148,1.0,1.0,66,0.00,,,0.01,Wunderground v.1.15,2013-07-14 23:00:00,
2013-07-14 19:10:00,84.4,71.8,30.29,SE,129,1.0,1.0,66,0.00,,,0.01,Wunderground v.1.15,2013-07-14 23:10:00,
2013-07-14 19:20:00,83.8,72.1,30.29,SE,129,0.0,0.0,68,0.00,,,0.01,Wunderground v.1.15,2013-07-14 23:20:00,
2013-07-14 19:30:00,82.9,72.5,30.29,SE,129,0.0,0.0,71,0.00,,,0.01,Wunderground v.1.15,2013-07-14 23:30:00,
2013-07-14 19:40:00,82.0,72.5,30.29,SE,129,0.0,3.0,73,0.00,,,0.01,Wunderground v.1.15,2013-07-14 23:40:00,
2013-07-14 19:50:00,81.6,72.1,30.29,SE,129,0.0,3.0,73,0.00,,,0.01,Wunderground v.1.15,2013-07-14 23:50:00,
2013-07-14 20:00:00,81.2,72.5,30.30,SE,129,0.0,0.0,75,0.00,,,0.01,Wunderground v.1.15,2013-07-15 00:00:00,
2013-07-14 20:10:00,80.8,72.9,30.30,SE,129,0.0,0.0,77,0.00,,,0.01,Wunderground v.1.15,2013-07-15 00:10:00,
2013-07-14 20:20:00,80.4,72.9,30.30,SE,129,0.0,0.0,78,0.00,,,0.01,Wunderground v.1.15,2013-07-15 00:20:00,
2013-07-14 20:30:00,79.7,73.3,30.30,SE,129,0.0,0.0,81,0.00,,,0.01,Wunderground v.1.15,2013-07-15 00:30:00,
2013-07-14 20:40:00,78.8,73.6,30.30,SE,129,0.0,1.0,84,0.00,,,0.01,Wunderground v.1.15,2013-07-15 00:40:00,
2013-07-14 20:50:00,78.2,73.7,30.30,SE,129,0.0,1.0,86,0.00,,,0.01,Wunderground v.1.15,2013-07-15 00:50:00,
2013-07-14 21:00:00,77.6,73.4,30.30,SE,129,0.0,0.0,87,0.00,,,0.01,Wunderground v.1.15,2013-07-15 01:00:00,
2013-07-14 21:10:00,77.0,73.5,30.31,SE,129,0.0,0.0,89,0.00,,,0.01,Wunderground v.1.15,2013-07-15 01:10:00,
2013-07-14 21:20:00,76.7,73.5,30.31,SE,129,0.0,0.0,90,0.00,,,0.01,Wunderground v.1.15,2013-07-15 01:20:00,
2013-07-14 21:30:00,76.4,73.6,30.31,SE,129,0.0,0.0,91,0.00,,,0.01,Wunderground v.1.15,2013-07-15 01:30:00,
2013-07-14 21:40:00,76.0,73.2,30.31,SE,129,0.0,1.0,91,0.00,,,0.01,Wunderground v.1.15,2013-07-15 01:40:00,
2013-07-14 21:50:00,75.5,73.0,30.32,SE,129,0.0,1.0,92,0.00,,,0.01,Wunderground v.1.15,2013-07-15 01:50:00,
2013-07-14 22:00:00,75.1,72.9,30.32,SE,129,0.0,0.0,93,0.00,,,0.01,Wunderground v.1.15,2013-07-15 02:00:00,
2013-07-14 22:10:00,74.9,73.1,30.33,SE,129,0.0,0.0,94,0.00,,,0.01,Wunderground v.1.15,2013-07-15 02:10:00,
2013-07-14 22:20:00,74.7,72.9,30.33,SE,129,0.0,0.0,94,0.00,,,0.01,Wunderground v.1.15,2013-07-15 02:20:00,
2013-07-14 22:30:00,74.6,73.1,30.33,SE,129,0.0,0.0,95,0.00,,,0.01,Wunderground v.1.15,2013-07-15 02:30:00,
2013-07-14 22:40:00,74.3,72.8,30.33,SE,129,0.0,0.0,95,0.00,,,0.01,Wunderground v.1.15,2013-07-15 02:40:00,
2013-07-14 22:50:00,74.1,72.6,30.33,SE,129,0.0,0.0,95,0.00,,,0.01,Wunderground v.1.15,2013-07-15 02:50:00,
2013-07-14 23:00:00,73.9,72.7,30.33,SE,129,0.0,0.0,96,0.00,,,0.01,Wunderground v.1.15,2013-07-15 03:00:00,
2013-07-14 23:10:00,73.6,72.4,30.33,SE,129,0.0,0.0,96,0.00,,,0.01,Wunderground v.1.15,2013-07-15 03:10:00,
2013-07-14 23:20:00,73.5,72.3,30.33,SE,129,0.0,0.0,96,0.00,,,0.01,Wunderground v.1.15,2013-07-15 03:20:00,
2013-07-14 23:30:00,73.3,72.1,30.33,SE,129,0.0,0.0,96,0.00,,,0.01,Wunderground v.1.15,2013-07-15 03:30:00,
2013-07-14 23:40:00,73.1,72.2,30.33,SE,129,0.0,0.0,97,0.00,,,0.01,Wunderground v.1.15,2013-07-15 03:40:00,
2013-07-14 23:50:00,72.9,72.0,30.33,SE,129,0.0,0.0,97,0.00,,,0.01,Wunderground v.1.15,2013-07-15 03:50:00,